W2CJS Weather Reports


time (UTC)temp
C
wind
direction
speed
KPH
gust
KPH
rain 1hr
cm
rain 24hr
cm
rain mn
cm
humidity
%
barometer
mb
20260506211003 7 55 0.0 4.8 0.03 2.26 2.03 93 1006.1
20260506210003 7 57 0.0 6.4 0.03 2.26 2.03 93 1006.1
20260506205003 7 56 0.0 6.4 0.03 2.26 2.03 93 1006.1
20260506204003 7 57 0.0 4.8 0.03 2.26 2.03 94 1006.0
20260506203003 7 57 1.6 3.2 0.03 2.26 2.03 93 1005.9
20260506202003 7 360 1.6 6.4 0.05 2.26 2.03 93 1005.8
20260506201003 7 358 0.0 4.8 0.03 2.24 2.01 94 1005.8
20260506200003 7 0 0.0 0.0 0.03 2.24 2.01 94 1005.8
20260506195003 7 0 0.0 0.0 0.03 2.24 2.01 94 1005.9
20260506194003 7 42 0.0 6.4 0.03 2.24 2.01 94 1005.7
20260506193003 7 42 1.6 8.0 0.03 2.24 2.01 94 1005.7
20260506192003 7 0 0.0 0.0 0.00 2.21 1.98 94 1005.7
20260506191003 7 0 0.0 0.0 0.00 2.21 1.98 94 1005.7
20260506190004 6 0 0.0 0.0 0.00 2.21 1.98 94 1005.7
20260506185003 6 0 0.0 0.0 0.00 2.21 1.98 94 1005.6
20260506184003 6 0 0.0 0.0 0.03 2.21 1.98 94 1005.4
20260506183003 6 0 0.0 0.0 0.03 2.21 1.98 94 1005.5
20260506182003 6 0 0.0 0.0 0.03 2.21 1.98 94 1005.5
20260506181024 6 0 0.0 0.0 0.05 2.21 1.98 94 1005.6
20260506180004 6 0 0.0 0.0 0.05 2.21 1.98 94 1005.8
20260506175003 6 41 0.0 1.6 0.05 2.21 1.98 94 1005.8
20260506174003 6 41 0.0 3.2 0.08 2.18 1.96 95 1005.8
20260506173024 6 0 0.0 0.0 0.08 2.18 1.96 94 1005.8
20260506172003 6 41 0.0 1.6 0.10 2.18 1.96 94 1006.0
20260506171003 6 0 0.0 0.0 0.10 2.16 1.93 94 1006.0
20260506170003 6 0 0.0 0.0 0.15 2.16 1.93 94 1006.1
20260506165003 5 0 0.0 0.0 0.20 2.16 1.93 94 1006.3
20260506164003 5 0 0.0 0.0 0.20 2.11 1.88 94 1006.4
20260506163003 5 41 0.0 3.2 0.25 2.11 1.88 94 1006.7
20260506162003 5 41 0.0 4.8 0.28 2.08 1.85 94 1006.7
20260506161003 5 0 0.0 0.0 0.28 2.03 1.80 94 1006.6
20260506160003 5 42 0.0 3.2 0.33 1.98 1.75 94 1006.4
20260506155024 5 41 0.0 3.2 0.38 1.96 1.73 94 1006.3
20260506154003 5 41 1.6 4.8 0.41 1.91 1.68 94 1006.4
20260506153003 5 41 1.6 4.8 0.43 1.85 1.63 94 1006.6
20260506152003 5 42 0.0 4.8 0.43 1.80 1.57 94 1006.5
20260506151003 5 0 0.0 0.0 0.43 1.75 1.52 94 1006.7
20260506150003 5 0 0.0 0.0 0.38 1.65 1.42 94 1006.8
20260506145003 5 0 0.0 0.0 0.36 1.60 1.35 94 1006.8
20260506144003 5 0 0.0 0.0 0.38 1.52 1.27 93 1006.9
20260506143003 5 0 0.0 0.0 0.36 1.45 1.19 94 1006.8
20260506142003 5 40 0.0 3.2 0.33 1.37 1.12 94 1006.9
20260506141003 5 0 0.0 0.0 0.33 1.35 1.09 94 1006.8
20260506140003 5 0 0.0 0.0 0.33 1.30 1.04 94 1006.8
20260506135003 5 40 1.6 4.8 0.30 1.24 0.99 94 1006.6
20260506134003 5 40 1.6 6.4 0.23 1.14 0.89 93 1006.4
20260506133003 5 39 1.6 4.8 0.20 1.09 0.84 93 1006.4
20260506132003 5 38 0.0 4.8 0.18 1.04 0.79 93 1006.3
20260506131003 5 37 1.6 6.4 0.18 1.02 0.76 93 1006.3
20260506130004 4 38 1.6 6.4 0.15 0.97 0.71 93 1006.5
20260506125003 4 79 0.0 6.4 0.15 0.94 0.69 93 1006.6
20260506124003 4 105 1.6 6.4 0.18 0.91 0.66 93 1006.7
20260506123003 4 108 1.6 4.8 0.18 0.89 0.64 93 1007.0
20260506122003 5 81 1.6 4.8 0.20 0.86 0.61 92 1007.0
20260506121003 5 78 0.0 3.2 0.23 0.84 0.58 93 1007.4
20260506120003 5 0 0.0 0.0 0.23 0.81 0.56 93 1007.8
20260506115003 5 80 1.6 4.8 0.23 0.79 0.53 93 1007.9
20260506114003 5 99 0.0 3.2 0.18 0.74 0.48 93 1008.1
20260506113003 5 99 0.0 3.2 0.18 0.71 0.46 93 1007.9
20260506112003 5 99 0.0 1.6 0.15 0.66 0.41 93 1007.4
20260506111024 5 0 0.0 0.0 0.13 0.61 0.36 93 1007.4
20260506110024 5 99 0.0 1.6 0.10 0.58 0.33 93 1007.4
20260506105003 5 0 0.0 0.0 0.10 0.56 0.30 92 1007.4
20260506104003 5 99 0.0 1.6 0.13 0.56 0.30 92 1007.7
20260506103003 5 99 0.0 1.6 0.13 0.53 0.28 92 1007.4
20260506102003 5 99 0.0 3.2 0.13 0.51 0.25 92 1007.4
20260506101003 5 99 0.0 6.4 0.10 0.48 0.23 92 1007.3
20260506100003 6 90 1.6 4.8 0.10 0.48 0.23 92 1007.4
20260506095003 6 177 1.6 4.8 0.08 0.46 0.20 92 1007.7
20260506094003 6 0 0.0 0.0 0.05 0.43 0.18 92 1007.7
20260506093003 6 0 0.0 0.0 0.03 0.41 0.15 92 1007.6
20260506092003 6 0 0.0 0.0 0.00 0.38 0.13 92 1007.3
20260506091003 6 0 0.0 0.0 0.03 0.38 0.13 92 1007.4
20260506090003 7 173 0.0 1.6 0.05 0.38 0.13 92 1008.1
20260506085003 7 0 0.0 0.0 0.05 0.38 0.13 93 1007.8
20260506084003 7 173 1.6 4.8 0.08 0.38 0.13 93 1007.7
20260506083003 7 173 0.0 3.2 0.08 0.38 0.13 93 1007.9
20260506082003 7 194 0.0 1.6 0.08 0.41 0.13 93 1008.1
20260506081003 7 252 0.0 3.2 0.05 0.41 0.10 93 1007.6
20260506073003 7 0 0.0 0.0 0.03 0.36 0.05 92 1007.8
20260506072003 7 0 0.0 0.0 0.03 0.36 0.05 92 1008.0
20260506071003 7 0 0.0 0.0 0.03 0.36 0.05 92 1008.3
20260506062003 8 290 1.6 4.8 0.00 0.33 0.03 91 1008.3
20260506061003 8 328 0.0 3.2 0.00 0.33 0.03 92 1008.4
20260506051003 8 331 0.0 4.8 0.03 0.33 0.03 91 1008.4
20260506045003 8 0 0.0 0.0 0.03 0.33 0.03 91 1008.7
20260506044003 9 264 1.6 6.4 0.05 0.33 0.03 91 1008.9
20260506043024 9 51 0.0 6.4 0.05 0.33 0.03 91 1008.9
20260506042003 10 249 0.0 4.8 0.03 0.30 0.00 92 1008.5
20260506041003 10 249 0.0 4.8 0.05 0.30 0.00 92 1008.8
20260506040004 10 256 1.6 6.4 0.05 0.30 0.00 91 1008.5
20260506035004 10 238 1.6 8.0 0.10 0.30 0.30 91 1008.3
20260506034003 10 251 0.0 1.6 0.08 0.28 0.28 92 1008.0
20260506033003 10 0 0.0 0.0 0.10 0.28 0.28 91 1008.2
20260506032003 10 0 0.0 0.0 0.10 0.28 0.28 90 1007.7
20260506031003 10 251 0.0 1.6 0.10 0.25 0.25 90 1007.9
20260506030003 10 251 0.0 4.8 0.10 0.25 0.25 89 1008.1
20260506025003 10 251 0.0 4.8 0.05 0.20 0.20 89 1008.5
20260506024003 10 338 0.0 1.6 0.08 0.20 0.20 88 1008.4
20260506023003 10 338 0.0 3.2 0.10 0.18 0.18 88 1008.5
20260506022003 11 0 0.0 0.0 0.10 0.18 0.18 88 1008.5
20260506021003 11 0 0.0 0.0 0.08 0.15 0.15 87 1008.6
20260506020003 11 0 0.0 0.0 0.08 0.15 0.15 85 1008.8
20260506015003 11 328 0.0 3.2 0.08 0.15 0.15 83 1008.4
20260506014003 12 273 1.6 4.8 0.05 0.13 0.13 79 1008.3
20260506013003 12 182 1.6 9.7 0.00 0.08 0.08 75 1008.4
20260506012024 13 296 3.2 11.3 0.00 0.08 0.08 71 1008.0
20260506011003 13 249 3.2 8.0 0.00 0.08 0.08 71 1007.9
20260506010024 14 226 3.2 14.5 0.00 0.08 0.08 72 1007.6
20260506005003 14 227 4.8 16.1 0.00 0.08 0.08 72 1007.3
20260506004003 14 250 6.4 17.7 0.00 0.08 0.08 72 1007.3
20260506003003 15 273 6.4 22.5 0.00 0.08 0.08 72 1007.0
20260506002003 15 242 4.8 12.9 0.00 0.08 0.08 74 1006.5
20260506001003 15 235 4.8 11.3 0.00 0.08 0.08 73 1006.1
20260506000003 16 247 3.2 9.7 0.00 0.08 0.08 72 1005.8
20260505235003 16 225 3.2 9.7 0.00 0.08 0.08 71 1005.6
20260505234003 16 228 3.2 8.0 0.00 0.08 0.08 70 1005.4
20260505233003 16 234 4.8 14.5 0.00 0.08 0.08 70 1005.4
20260505232003 16 230 6.4 19.3 0.00 0.08 0.08 69 1005.4
20260505231003 16 241 4.8 19.3 0.00 0.08 0.08 68 1005.3
20260505230003 17 244 4.8 12.9 0.00 0.08 0.08 69 1005.2
20260505225024 17 237 4.8 11.3 0.00 0.08 0.08 69 1005.2
20260505224024 17 220 4.8 16.1 0.00 0.08 0.08 70 1004.8
20260505223003 17 256 4.8 12.9 0.00 0.08 0.08 69 1004.9
20260505222003 17 266 8.0 17.7 0.00 0.08 0.08 68 1004.8
20260505221003 17 248 6.4 16.1 0.00 0.08 0.08 67 1004.7
20260505220003 17 232 4.8 17.7 0.00 0.08 0.08 67 1004.6
20260505215003 17 237 4.8 12.9 0.00 0.08 0.08 69 1004.4
20260505214024 17 230 9.7 19.3 0.00 0.08 0.08 70 1004.6
20260505213003 17 233 9.7 22.5 0.00 0.08 0.08 69 1004.4
20260505212024 17 229 9.7 24.1 0.00 0.08 0.08 70 1004.5